[[{"header":{"parameterUnit":"m.s-1","parameterCategory":1,"la1":30.2991,"la2":30.254,"lo1":-89.0895,"lo2":-89.0444,"dy":0.0017,"dx":0.0017,"nx":28,"ny":28,"refTime":"2024-07-27T03:00:00:Z","depth":0,"parameterNumber":2,"parameterNumberName":"U-component_of_WINDS"},"data":[0,0,0,0,0,0,0,0,0,0,0,0,0,0,0,0,0,0,0,0,0,0,0,0,0,0,0,0,0,0,0,0,0,0,0,0,0,0,0,0,0,0,0,0,0,0,0,0,0,0,0,0,0,0,0,0,0,0,0.0667,0.0666,0,0.0585,0.0584,0.0583,0.0533,0.0533,0.0533,0.0532,0.0445,0.0443,0.0441,0,0,0,0,0,0,0,0,0,0,0,0,0,0.0779,0.0777,0.0667,0.0666,0.0665,0.0585,0.0584,0.0583,0.0533,0.0533,0.0532,0.0532,0.0446,0.0443,0.0441,0,0,0,0,0,0,0,0,0,0,0,0,0,0.0717,0.0776,0.0668,0.0631,0.0627,0.0585,0.0584,0.0583,0.0533,0.0533,0.0532,0.0532,0.0447,0.0444,0.0441,0.0428,0,0,0.0431,0.043,0,0,0,0,0,0,0,0,0.072,0.0713,0.0637,0.0633,0.0629,0.0569,0.0591,0.0531,0.0533,0.0569,0.0532,0.0532,0.0487,0.048,0.0465,0.0424,0.0421,0.0431,0.0429,0.0427,0.0427,0,0,0,0,0,0,0,0.0725,0.0716,0.0635,0.0636,0.0631,0.0618,0.0608,0.058,0.053,0.0565,0.0562,0.0553,0.0484,0.0469,0.0463,0.0419,0.0431,0.0428,0.0426,0.0425,0.0363,0.0364,0,0,0,0,0,0,0.0735,0.072,0.0637,0.0632,0.0675,0.0616,0.0606,0.0588,0.0531,0.0522,0.0553,0.0551,0.0474,0.0467,0.046,0.0441,0.0427,0.0425,0.0423,0.0363,0.0363,0.0364,0,0,0,0,0,0,0.0738,0.0728,0.0641,0.0675,0.0663,0.0614,0.0596,0.0587,0.0571,0.0521,0.0512,0.0546,0.0473,0.0464,0.0437,0.0437,0.0423,0.042,0.0363,0.0363,0.0364,0.0404,0,0,0,0,0,0,0.0741,0.073,0.0725,0.0675,0.0661,0.062,0.0596,0.0586,0.0566,0.0562,0.0513,0.0504,0.0472,0.0442,0.0433,0.0433,0.0418,0.0362,0.0363,0.0363,0.0402,0.0405,0.0408,0,0,0,0,0,0.0745,0.0739,0.0725,0.0715,0.0655,0.062,0.0612,0.0576,0.0567,0.0561,0.0529,0.0506,0.0439,0.0439,0.043,0.0428,0.0362,0.0363,0.0363,0.0401,0.0405,0.0408,0,0,0,0,0,0,0.0789,0.0732,0.0716,0.0694,0.0662,0.0612,0.0604,0.0582,0.0552,0.0549,0.0506,0.0495,0.0472,0.0447,0.0449,0.0413,0.0398,0.0396,0.0429,0.0433,0.0436,0.0442,0.0415,0,0,0,0,0,0.0797,0.0774,0.0725,0.071,0.0695,0.0653,0.0636,0.0612,0.0577,0.0563,0.0529,0.0495,0.0467,0.0448,0.0419,0.0399,0.0386,0.0393,0.0396,0.0399,0.0398,0.0384,0.0386,0.0365,0.0365,0.0365,0,0,0.0811,0.0777,0.0765,0.0718,0.0691,0.0668,0.0642,0.0618,0.06,0.0559,0.0531,0.0505,0.0465,0.044,0.0428,0.0419,0.0401,0.0399,0.0402,0.0399,0.0385,0.0387,0.0388,0.0366,0.0366,0.0366,0,0,0.0825,0.0798,0.0782,0.0756,0.0715,0.0687,0.0683,0.0636,0.0617,0.0589,0.0557,0.0535,0.0487,0.0459,0.0439,0.0443,0.0419,0.0434,0.045,0.0437,0.0439,0.044,0.044,0.0441,0.0434,0.0434,0.0434,0,0.0848,0.0813,0.0777,0.0755,0.0735,0.0698,0.0681,0.0657,0.0608,0.0595,0.0586,0.0524,0.0495,0.0463,0.0464,0.0449,0.0443,0.0439,0.0442,0.0442,0.0443,0.0443,0.0443,0.0436,0.0436,0.0436,0.0435,0,0.0842,0.0818,0.081,0.0765,0.0744,0.0725,0.0685,0.0668,0.0646,0.0618,0.0589,0.0552,0.0515,0.0505,0.0483,0.047,0.0466,0.045,0.0434,0.0448,0.0447,0.0446,0.0439,0.0438,0.0438,0.0437,0,0,0.0881,0.0817,0.0815,0.0794,0.0746,0.0726,0.0705,0.067,0.0655,0.0623,0.0604,0.0564,0.0549,0.0526,0.05,0.0489,0.0493,0.0474,0.0472,0.0478,0.0476,0.0487,0.0488,0.0478,0.0478,0.0478,0.0479,0,0.0887,0.0849,0.0816,0.0788,0.0765,0.073,0.0711,0.068,0.0654,0.0629,0.0599,0.0572,0.0555,0.054,0.0528,0.0496,0.0492,0.0495,0.0458,0.0457,0.0468,0.0487,0.0499,0.0502,0.0478,0.0478,0.0478,0,0.089,0.086,0.0831,0.0786,0.0774,0.0759,0.0723,0.07,0.0664,0.0645,0.062,0.0593,0.0568,0.0556,0.052,0.0523,0.0506,0.0488,0.0487,0.0481,0.0468,0.0481,0.0502,0.0502,0.0477,0.0477,0.0477,0,0.092,0.0872,0.0848,0.0832,0.0779,0.0768,0.0745,0.0708,0.0689,0.0657,0.0644,0.061,0.0591,0.0565,0.0529,0.0524,0.0497,0.0482,0.048,0.0481,0.0475,0.0475,0.0492,0.0466,0.0466,0.0466,0.0466,0,0.0929,0.0913,0.0861,0.0846,0.0826,0.0788,0.0769,0.0743,0.0711,0.0689,0.0657,0.0638,0.0592,0.0567,0.0539,0.0513,0.0505,0.0489,0.0481,0.0491,0.0493,0.0478,0.0477,0.0466,0.0466,0.0466,0.0466,0,0.0959,0.0924,0.0896,0.0848,0.0836,0.0823,0.0781,0.0765,0.0738,0.0711,0.0703,0.0659,0.0627,0.059,0.0546,0.0527,0.0503,0.0493,0.0516,0.0511,0.0511,0.0511,0.0518,0.0517,0.0493,0.0493,0.0494,0,0.0967,0.0953,0.0905,0.0889,0.0867,0.0842,0.0822,0.0784,0.0764,0.0721,0.071,0.0677,0.0648,0.0599,0.0563,0.0529,0.0516,0.0521,0.0511,0.0521,0.0515,0.0516,0.0514,0.0524,0.0524,0.0524,0.0525,0,0.0985,0.0968,0.0941,0.0908,0.0886,0.0858,0.0828,0.0817,0.0772,0.0752,0.072,0.0698,0.0654,0.062,0.0582,0.0557,0.0533,0.0529,0.0526,0.0535,0.0549,0.054,0.0522,0.0528,0.0528,0.0528,0.0527,0.0527,0.1003,0.0989,0.0952,0.0923,0.0897,0.0871,0.0853,0.0823,0.0796,0.0758,0.0737,0.0705,0.0668,0.0615,0.0591,0.0565,0.0556,0.0553,0.0552,0.0551,0.0554,0.0554,0.0558,0.0558,0.0557,0.0557,0.0557,0,0.1018,0.0993,0.0967,0.0927,0.0904,0.0885,0.0851,0.0832,0.0805,0.0773,0.0746,0.0709,0.0677,0.0638,0.0602,0.0589,0.0577,0.0581,0.0581,0.0575,0.0564,0.0569,0.0591,0.0591,0.0591,0.0591,0.0591,0.0591,0.1023,0.0998,0.0977,0.0939,0.0913,0.0883,0.0865,0.084,0.0814,0.0775,0.0748,0.0723,0.0688,0.065,0.0619,0.0608,0.0596,0.0603,0.0589,0.0579,0.0576,0.0573,0.0578,0.0602,0.0602,0.0603,0.0603,0.0603]},{"header":{"parameterUnit":"m.s-1","parameterCategory":1,"la1":30.2991,"la2":30.254,"lo1":-89.0895,"lo2":-89.0444,"dy":0.0017,"dx":0.0017,"nx":28,"ny":28,"refTime":"2024-07-27T03:00:00:Z","depth":0,"parameterNumber":3,"parameterNumberName":"V-component_of_WINDS"},"data":[0,0,0,0,0,0,0,0,0,0,0,0,0,0,0,0,0,0,0,0,0,0,0,0,0,0,0,0,0,0,0,0,0,0,0,0,0,0,0,0,0,0,0,0,0,0,0,0,0,0,0,0,0,0,0,0,0,0,3.1498,3.1498,0,3.1485,3.1485,3.1485,3.1432,3.1431,3.143,3.1429,3.1412,3.1413,3.1414,0,0,0,0,0,0,0,0,0,0,0,0,0,3.1478,3.1479,3.1498,3.1498,3.1498,3.1485,3.1485,3.1485,3.1432,3.1431,3.1429,3.1428,3.1412,3.1413,3.1414,0,0,0,0,0,0,0,0,0,0,0,0,0,3.1478,3.1479,3.1499,3.1471,3.1468,3.1485,3.1485,3.1485,3.1433,3.1431,3.1429,3.1427,3.1412,3.1413,3.1414,3.1456,0,0,3.1417,3.1417,0,0,0,0,0,0,0,0,3.1478,3.1479,3.1475,3.1472,3.147,3.1458,3.1472,3.1475,3.1433,3.1446,3.1429,3.1426,3.1429,3.1428,3.143,3.1455,3.1455,3.1417,3.1418,3.1418,3.1418,0,0,0,0,0,0,0,3.1478,3.1479,3.1493,3.1475,3.1472,3.1458,3.1456,3.1472,3.1448,3.1445,3.1441,3.144,3.1427,3.1429,3.1429,3.1454,3.1417,3.1418,3.1418,3.1419,3.1516,3.1518,0,0,0,0,0,0,3.1483,3.148,3.1493,3.1493,3.147,3.146,3.1458,3.1464,3.1447,3.1443,3.1442,3.1438,3.1428,3.1428,3.1428,3.1477,3.1418,3.1419,3.142,3.1514,3.1516,3.1518,0,0,0,0,0,0,3.1482,3.1484,3.1494,3.1485,3.1485,3.1463,3.1469,3.1464,3.1466,3.1445,3.144,3.1448,3.1427,3.1427,3.145,3.1476,3.1419,3.142,3.1512,3.1515,3.1517,3.1575,0,0,0,0,0,0,3.1482,3.1484,3.15,3.1486,3.1486,3.1516,3.1471,3.1466,3.1468,3.1463,3.145,3.1446,3.1425,3.1449,3.1451,3.1476,3.1421,3.1509,3.1513,3.1516,3.1571,3.158,3.1587,0,0,0,0,0,3.1481,3.1516,3.1501,3.1503,3.1505,3.1518,3.1518,3.1494,3.1471,3.1486,3.1473,3.1446,3.1473,3.1452,3.1454,3.1479,3.1507,3.1512,3.1516,3.1567,3.1578,3.1587,0,0,0,0,0,0,3.1532,3.1513,3.1497,3.1528,3.1525,3.1509,3.1527,3.1506,3.1509,3.1504,3.1474,3.1472,3.1499,3.1492,3.1468,3.1521,3.1486,3.1491,3.1524,3.1534,3.1542,3.1542,3.1422,0,0,0,0,0,3.1547,3.1559,3.1542,3.1571,3.1571,3.155,3.1555,3.1537,3.1533,3.1531,3.1519,3.1515,3.1523,3.1528,3.1534,3.1571,3.1567,3.159,3.1598,3.1605,3.1609,3.1628,3.1638,3.1533,3.1533,3.1533,0,0,3.1577,3.1569,3.1578,3.1582,3.1577,3.1591,3.1549,3.1564,3.1574,3.1533,3.1554,3.1546,3.154,3.157,3.1583,3.1565,3.1638,3.161,3.1616,3.1616,3.1634,3.1644,3.1653,3.1536,3.1535,3.1535,0,0,3.1639,3.1635,3.1659,3.1656,3.1651,3.1638,3.1644,3.1632,3.1625,3.1647,3.1617,3.1628,3.1642,3.1639,3.1639,3.1705,3.168,3.1708,3.175,3.1769,3.1778,3.1785,3.1808,3.1817,3.1712,3.1713,3.1713,0,3.1677,3.1696,3.1674,3.1692,3.1694,3.166,3.1685,3.1683,3.168,3.1682,3.1663,3.1681,3.1675,3.1704,3.1721,3.1722,3.1728,3.1708,3.1779,3.1786,3.1792,3.1813,3.1822,3.1716,3.1716,3.1715,3.1715,0,3.1744,3.1758,3.1778,3.1778,3.1783,3.1804,3.1785,3.1793,3.1776,3.1765,3.1788,3.178,3.1784,3.179,3.1773,3.1818,3.1807,3.1784,3.1748,3.1806,3.1825,3.1834,3.1721,3.1719,3.1718,3.1718,0,0,3.1833,3.1823,3.183,3.1831,3.1825,3.1835,3.1856,3.1861,3.1869,3.1869,3.1885,3.19,3.1879,3.1879,3.1862,3.188,3.1932,3.1854,3.1853,3.1868,3.1982,3.1998,3.2008,3.1917,3.1919,3.192,3.1982,0,3.1892,3.1926,3.1908,3.1945,3.1958,3.1928,3.1946,3.1944,3.1935,3.1945,3.1935,3.1946,3.1917,3.1918,3.1934,3.1923,3.1955,3.1918,3.1931,3.1932,3.1932,3.2019,3.2036,3.2094,3.199,3.1991,3.1992,0,3.1963,3.1969,3.2008,3.2001,3.2006,3.2023,3.2027,3.2038,3.2036,3.2028,3.2031,3.2011,3.2031,3.1998,3.2025,3.2,3.2005,3.2001,3.2003,3.2001,3.1964,3.2019,3.2113,3.2121,3.2004,3.2003,3.2002,0,3.2024,3.2041,3.2067,3.2068,3.2061,3.2074,3.2072,3.2068,3.2074,3.2078,3.2082,3.2088,3.2091,3.2097,3.2079,3.2057,3.2109,3.2074,3.2103,3.2103,3.2113,3.2112,3.2207,3.2119,3.2119,3.2119,3.2118,0,3.209,3.2115,3.2094,3.211,3.2137,3.2117,3.2145,3.2139,3.2137,3.2151,3.2126,3.214,3.2116,3.2128,3.2114,3.2139,3.2141,3.2135,3.213,3.2136,3.2137,3.2137,3.2132,3.2121,3.212,3.212,3.2119,0,3.2161,3.2149,3.2175,3.2168,3.2167,3.2187,3.2181,3.2195,3.2186,3.2204,3.2208,3.2193,3.2205,3.2189,3.22,3.2191,3.2224,3.2215,3.2225,3.2222,3.2251,3.2248,3.2349,3.2361,3.2266,3.2267,3.2267,0,3.2203,3.2222,3.2218,3.2227,3.2226,3.224,3.2246,3.2228,3.2236,3.2237,3.2251,3.2262,3.227,3.2291,3.2281,3.2289,3.2279,3.2314,3.228,3.2285,3.2278,3.2277,3.2279,3.232,3.2321,3.2322,3.2323,0,3.2279,3.2273,3.2283,3.2293,3.2302,3.2307,3.2311,3.232,3.2301,3.2311,3.2324,3.2331,3.2343,3.2354,3.2361,3.2358,3.2337,3.2334,3.2341,3.2346,3.2351,3.2348,3.2243,3.2331,3.233,3.233,3.2329,3.2329,3.2336,3.2352,3.2353,3.2366,3.2368,3.2373,3.2386,3.2381,3.2392,3.2401,3.239,3.2407,3.2407,3.2414,3.2414,3.2427,3.2411,3.2421,3.2424,3.2426,3.243,3.2351,3.2428,3.2427,3.2427,3.2427,3.2427,0,3.241,3.241,3.2423,3.243,3.2441,3.2424,3.2428,3.2438,3.2454,3.2456,3.2465,3.2482,3.2493,3.2486,3.2495,3.2507,3.2498,3.251,3.2508,3.2508,3.2443,3.2436,3.2517,3.2517,3.2517,3.2517,3.2517,3.2517,3.2449,3.2476,3.247,3.2498,3.2497,3.2515,3.2519,3.2524,3.2526,3.2546,3.2556,3.2552,3.2551,3.2561,3.2571,3.2568,3.2573,3.2588,3.2582,3.2521,3.2512,3.2504,3.2497,3.2589,3.2589,3.2645,3.2646,3.2646]}]]